Showing default

ORBCOMM FM 15, 25418

Orbit data source: Space-Track

ORBCOMM FM 15, 25418 is a payload satellite owned by Orbcomm (US) in LEO that was launched on Sun, 02 Aug 1998 UTC via a PEGASUS XL/HAPS launch vehicle from the Pegasus Launch, Eastern Range Air Space (ERAS). Payload-class satellites include a variety of spacecraft equipped with specific instruments for various scientific and technological missions. These include communications satellites like Starlink; space stations such as the ISS; scientific satellites like the Hubble; Earth observation satellites from companies like Planet Labs, Umbra, and HawkEye 360; GPS; miniature CubeSats for education and research; and military/defense satellites.

Loading next visibility...
Identifier
25418, 1998-046F
Orbit
LEO
Country
Flag of USUS / ORB
Related business
Manufacturer
OSC-Germantown
Mission
Non-operational Commercial Communications
Bus & Motor
MICROSTAR, Unknown motor
Mass
42 kg wet, 42 kg dry
Launch date (UTC)
1998-08-02 (28 years ago)
Launch vehicle
PEGASUS XL/HAPS
Launch site
Pegasus Launch, Eastern Range Air Space (ERAS)
Object type
Payload
Rocket body
Debris
Shape & HBR
Cyl + 2 Pan, 4.2 m
Radar Cross Section
1.484 m², Medium (>0.1 m² and < 1m²)

Expand to show TLE details & history
Last TLE update: 3 hours ago

TLE from 3 hours ago
0 ORBCOMM FM 15
1 25418U 98046F   26038.31707791  .00001766  00000-0  60802-3 0  9990
2 25418  44.9962 141.4360 0002244  47.4723 312.6315 14.39366852438119
Epoch: 2026-02-07T07:36Z
TLE epoch observation values (Epoch: 2026-02-07T07:36:35.531Z)
Latitude
-0.00001°
Longitude
-110.15439°
Altitude
759.505 km
Speed
7.477 km/s
True Right ascension
09h 25m 44s
True Declination
0° 00' 00"
Sunlit
Object was in full shadow at epoch
Visualization orbit readout
Latitude
Unknown
Longitude
Unknown
Altitude
Unknown
Speed
Unknown
Apparent Right ascension
Unknown
Apparent Declination
Unknown
Sunlit
N/A
Visualization observer readout
Local Sidereal Time
12:55:23
Azimuth
Unknown
Elevation
Unknown
Doppler factor
Unknown
Orbital elements
Apogee altitude
763.741 km
Perigee altitude
760.536 km
Semi-major axis
7,140.276 km
Eccentricity
0.00022
Inclination
44.9962°
RAAN
141.436°
Arg. of periapsis
47.4723°
True anomaly
312.61258°
Mean anomaly
312.6315°
Eccentric anomaly
312.62204°
Mean motion
3.59725 °/min
Orbital period
100.08 mins
BSTAR
0.00060802
Loading maneuver chart data...
Computing Atmospheric mass density...

Documentation

Showing up to 5 results
|